SWA3218 KBWI-KRDU

Flight info

Callsign SWA3218
Flight time 1h 16m
Altitude 22000
Route CONLE5 COLIN TAPPA HOUKY TAQLE3
Aircraft B736/M-SDE2E3FGHIRWXY/LB1

Departure

Time 2026-05-07 00:33
Airport Baltimore/Washington International Thurgood Marshall Airport (KBWI)

Arrival

Time 2026-05-07 01:50
Airport Raleigh-Durham International Airport (KRDU)
Time Latitude Longitude Altitude Speed Heading
2026-05-06 23:48 39.17891 -76.67184 154 ft 0 kts 55°
2026-05-07 00:18 39.17885 -76.67196 155 ft 4 kts 56°
2026-05-07 00:18 39.17870 -76.67225 155 ft 4 kts 60°
2026-05-07 00:18 39.17858 -76.67256 154 ft 4 kts 73°
2026-05-07 00:19 39.17857 -76.67287 153 ft 4 kts 131°
2026-05-07 00:19 39.17864 -76.67295 153 ft 0 kts 144°
2026-05-07 00:23 39.17840 -76.67273 154 ft 8 kts 144°
2026-05-07 00:23 39.17778 -76.67214 154 ft 14 kts 143°
2026-05-07 00:23 39.17713 -76.67154 155 ft 6 kts 146°
2026-05-07 00:23 39.17706 -76.67147 155 ft 0 kts 145°
2026-05-07 00:24 39.17703 -76.67145 155 ft 2 kts 145°
2026-05-07 00:24 39.17662 -76.67107 155 ft 13 kts 144°
2026-05-07 00:24 39.17577 -76.67027 155 ft 16 kts 142°
2026-05-07 00:25 39.17535 -76.66900 155 ft 16 kts 93°
2026-05-07 00:25 39.17526 -76.66741 154 ft 19 kts 94°
2026-05-07 00:25 39.17527 -76.66573 153 ft 19 kts 66°
2026-05-07 00:25 39.17573 -76.66465 152 ft 14 kts 118°
2026-05-07 00:26 39.17511 -76.66347 150 ft 19 kts 123°
2026-05-07 00:26 39.17455 -76.66179 148 ft 21 kts 94°
2026-05-07 00:26 39.17444 -76.65990 146 ft 21 kts 94°
2026-05-07 00:26 39.17433 -76.65806 142 ft 21 kts 94°
2026-05-07 00:27 39.17424 -76.65637 141 ft 14 kts 94°
2026-05-07 00:27 39.17420 -76.65577 141 ft 0 kts 97°
2026-05-07 00:28 39.17420 -76.65575 141 ft 1 kts 97°
2026-05-07 00:29 39.17408 -76.65540 141 ft 9 kts 134°
2026-05-07 00:29 39.17371 -76.65523 140 ft 0 kts 178°
2026-05-07 00:30 39.17344 -76.65524 140 ft 9 kts 182°
2026-05-07 00:31 39.17286 -76.65565 139 ft 11 kts 246°
2026-05-07 00:31 39.17285 -76.65642 140 ft 0 kts 274°
2026-05-07 00:32 39.17294 -76.65792 142 ft 60 kts 274°
2026-05-07 00:33 39.17351 -76.66780 171 ft 155 kts 275°
2026-05-07 00:33 39.17455 -76.68309 974 ft 181 kts 273°
2026-05-07 00:33 39.17531 -76.70012 2062 ft 199 kts 273°
2026-05-07 00:33 39.17639 -76.71914 2959 ft 219 kts 274°
2026-05-07 00:34 39.17582 -76.73930 3964 ft 238 kts 254°
2026-05-07 00:34 39.16718 -76.75771 5126 ft 247 kts 226°
2026-05-07 00:34 39.15241 -76.76878 6460 ft 256 kts 201°
2026-05-07 00:34 39.13387 -76.77030 6882 ft 271 kts 172°
2026-05-07 00:35 39.11716 -76.75891 7039 ft 288 kts 146°
2026-05-07 00:35 39.10259 -76.74037 7048 ft 299 kts 137°
2026-05-07 00:35 39.08857 -76.72036 7036 ft 301 kts 137°
2026-05-07 00:35 39.07445 -76.70070 7021 ft 297 kts 139°
2026-05-07 00:36 39.06029 -76.68163 7027 ft 293 kts 139°
2026-05-07 00:36 39.04602 -76.66304 7031 ft 291 kts 140°
2026-05-07 00:36 39.03204 -76.64416 7066 ft 294 kts 136°
2026-05-07 00:36 39.01848 -76.62370 7701 ft 304 kts 135°
2026-05-07 00:37 39.00494 -76.60283 8983 ft 304 kts 136°
2026-05-07 00:37 38.99122 -76.58185 10162 ft 308 kts 136°
2026-05-07 00:37 38.97703 -76.56042 11007 ft 323 kts 137°
2026-05-07 00:37 38.96210 -76.53806 11822 ft 336 kts 136°
2026-05-07 00:38 38.94658 -76.51538 12574 ft 348 kts 142°
2026-05-07 00:38 38.92652 -76.49866 13339 ft 344 kts 166°
2026-05-07 00:38 38.90317 -76.49285 13894 ft 342 kts 187°
2026-05-07 00:38 38.88001 -76.49703 14016 ft 335 kts 198°
2026-05-07 00:39 38.85730 -76.50367 14006 ft 334 kts 199°
2026-05-07 00:39 38.83502 -76.51169 14013 ft 330 kts 205°
2026-05-07 00:39 38.81356 -76.52221 14041 ft 332 kts 208°
2026-05-07 00:39 38.79200 -76.53355 14789 ft 336 kts 208°
2026-05-07 00:40 38.77029 -76.54482 15840 ft 337 kts 209°
2026-05-07 00:40 38.74842 -76.55588 16793 ft 340 kts 209°
2026-05-07 00:40 38.72617 -76.56693 17688 ft 345 kts 209°
2026-05-07 00:40 38.70353 -76.57807 18459 ft 351 kts 210°
2026-05-07 00:41 38.68057 -76.58921 18787 ft 352 kts 209°
2026-05-07 00:41 38.65742 -76.60000 18864 ft 356 kts 209°
2026-05-07 00:41 38.63416 -76.61068 18871 ft 355 kts 208°
2026-05-07 00:41 38.61095 -76.62129 18875 ft 354 kts 209°
2026-05-07 00:42 38.58768 -76.63199 18982 ft 360 kts 209°
2026-05-07 00:42 38.56397 -76.64293 19787 ft 361 kts 209°
2026-05-07 00:42 38.54042 -76.65375 20808 ft 358 kts 210°
2026-05-07 00:42 38.51683 -76.66463 21487 ft 364 kts 210°
2026-05-07 00:43 38.50104 -76.67193 21756 ft 365 kts 210°
2026-05-07 00:43 38.46959 -76.68643 21863 ft 368 kts 210°
2026-05-07 00:43 38.44529 -76.69759 21871 ft 366 kts 210°
2026-05-07 00:43 38.42116 -76.70821 21870 ft 371 kts 206°
2026-05-07 00:44 38.39520 -76.71231 21872 ft 393 kts 189°
2026-05-07 00:44 38.36761 -76.70900 21884 ft 401 kts 184°
2026-05-07 00:44 38.33989 -76.70416 21875 ft 403 kts 183°
2026-05-07 00:44 38.31207 -76.69904 21875 ft 404 kts 183°
2026-05-07 00:45 38.29325 -76.69565 21877 ft 404 kts 183°
2026-05-07 00:45 38.26540 -76.69082 21872 ft 404 kts 183°
2026-05-07 00:45 38.23749 -76.68618 21872 ft 404 kts 183°
2026-05-07 00:45 38.20964 -76.68165 21872 ft 404 kts 184°
2026-05-07 00:46 38.18170 -76.67715 21875 ft 404 kts 184°
2026-05-07 00:46 38.15411 -76.67272 21878 ft 404 kts 184°
2026-05-07 00:46 38.12648 -76.67056 21857 ft 387 kts 197°
2026-05-07 00:46 38.10136 -76.68022 21896 ft 376 kts 215°
2026-05-07 00:47 38.07857 -76.69714 21901 ft 382 kts 224°
2026-05-07 00:47 38.05901 -76.71969 21880 ft 377 kts 236°
2026-05-07 00:47 38.04200 -76.74494 21883 ft 381 kts 231°
2026-05-07 00:47 38.01895 -76.76303 21905 ft 405 kts 209°
2026-05-07 00:48 37.99063 -76.77054 21920 ft 421 kts 197°
2026-05-07 00:48 37.96120 -76.77338 21887 ft 435 kts 186°
2026-05-07 00:48 37.93102 -76.76419 21917 ft 461 kts 165°
2026-05-07 00:48 37.90369 -76.74157 21913 ft 483 kts 143°
2026-05-07 00:49 37.88281 -76.70769 21910 ft 498 kts 122°
2026-05-07 00:49 37.87112 -76.66614 21907 ft 506 kts 101°
2026-05-07 00:49 37.86961 -76.62202 21903 ft 494 kts 85°
2026-05-07 00:49 37.87315 -76.57965 21888 ft 477 kts 81°
2026-05-07 00:50 37.87762 -76.53877 21880 ft 472 kts 79°
2026-05-07 00:50 37.88238 -76.49765 21882 ft 472 kts 79°
2026-05-07 00:50 37.88723 -76.45640 21886 ft 473 kts 79°
2026-05-07 00:50 37.89209 -76.41527 21884 ft 473 kts 79°
2026-05-07 00:51 37.89700 -76.37404 21883 ft 473 kts 79°
2026-05-07 00:51 37.90192 -76.33279 21886 ft 474 kts 79°
2026-05-07 00:51 37.90684 -76.29157 21894 ft 474 kts 79°
2026-05-07 00:51 37.91154 -76.25026 21898 ft 474 kts 83°
2026-05-07 00:52 37.90900 -76.20880 21905 ft 474 kts 107°
2026-05-07 00:52 37.89568 -76.17125 21912 ft 464 kts 130°
2026-05-07 00:52 37.87378 -76.14242 21922 ft 447 kts 150°
2026-05-07 00:52 37.84750 -76.12258 21910 ft 434 kts 165°
2026-05-07 00:53 37.81946 -76.11056 21899 ft 420 kts 177°
2026-05-07 00:53 37.79108 -76.10666 21895 ft 403 kts 191°
2026-05-07 00:53 37.76385 -76.11118 21907 ft 386 kts 205°
2026-05-07 00:53 37.73939 -76.12329 21908 ft 371 kts 218°
2026-05-07 00:54 37.71833 -76.14124 21916 ft 361 kts 227°
2026-05-07 00:54 37.70027 -76.16268 21907 ft 353 kts 236°
2026-05-07 00:54 37.68625 -76.18764 21907 ft 344 kts 246°
2026-05-07 00:54 37.67553 -76.21416 21904 ft 343 kts 249°
2026-05-07 00:55 37.66545 -76.24145 21903 ft 342 kts 250°
2026-05-07 00:55 37.65559 -76.26879 21904 ft 342 kts 250°
2026-05-07 00:55 37.64572 -76.29620 21902 ft 342 kts 250°
2026-05-07 00:55 37.63580 -76.32354 21902 ft 342 kts 250°
2026-05-07 00:56 37.62582 -76.35081 21896 ft 343 kts 250°
2026-05-07 00:56 37.61579 -76.37807 21900 ft 343 kts 250°
2026-05-07 00:56 37.60572 -76.40529 21903 ft 343 kts 250°
2026-05-07 00:56 37.59563 -76.43251 21904 ft 343 kts 250°
2026-05-07 00:57 37.58550 -76.45977 21908 ft 343 kts 250°
2026-05-07 00:57 37.57537 -76.48697 21911 ft 343 kts 250°
2026-05-07 00:57 37.56520 -76.51425 21914 ft 343 kts 249°
2026-05-07 00:57 37.55504 -76.54149 21918 ft 344 kts 249°
2026-05-07 00:58 37.54486 -76.56875 21917 ft 344 kts 249°
2026-05-07 00:58 37.53467 -76.59598 21918 ft 344 kts 249°
2026-05-07 00:58 37.52447 -76.62324 21922 ft 344 kts 249°
2026-05-07 00:58 37.51428 -76.65046 21924 ft 344 kts 249°
2026-05-07 00:59 37.49383 -76.70500 21923 ft 344 kts 249°
2026-05-07 00:59 37.48360 -76.73223 21925 ft 344 kts 249°
2026-05-07 00:59 37.47334 -76.75953 21920 ft 345 kts 249°
2026-05-07 01:00 37.46309 -76.78678 21922 ft 345 kts 249°
2026-05-07 01:00 37.45293 -76.81376 21924 ft 345 kts 249°
2026-05-07 01:00 37.44268 -76.84096 21923 ft 345 kts 249°
2026-05-07 01:00 37.43226 -76.86859 21932 ft 345 kts 249°
2026-05-07 01:01 37.42210 -76.89552 21914 ft 345 kts 249°
2026-05-07 01:01 37.41179 -76.92280 21914 ft 345 kts 249°
2026-05-07 01:01 37.40149 -76.95004 21921 ft 345 kts 249°
2026-05-07 01:01 37.39118 -76.97728 21906 ft 345 kts 249°
2026-05-07 01:02 37.38086 -77.00453 21924 ft 345 kts 249°
2026-05-07 01:02 37.37051 -77.03185 21917 ft 346 kts 249°
2026-05-07 01:02 37.36017 -77.05910 21903 ft 346 kts 249°
2026-05-07 01:02 37.34981 -77.08637 21911 ft 346 kts 249°
2026-05-07 01:03 37.33810 -77.11294 21896 ft 352 kts 239°
2026-05-07 01:03 37.32121 -77.13562 21907 ft 361 kts 227°
2026-05-07 01:03 37.29972 -77.15284 21912 ft 373 kts 214°
2026-05-07 01:03 37.27606 -77.16677 21912 ft 376 kts 212°
2026-05-07 01:04 37.25207 -77.17999 21913 ft 377 kts 212°
2026-05-07 01:04 37.22807 -77.19327 21927 ft 377 kts 212°
2026-05-07 01:04 37.20419 -77.20681 21920 ft 377 kts 212°
2026-05-07 01:04 37.18038 -77.22052 21915 ft 377 kts 212°
2026-05-07 01:05 37.15658 -77.23439 21924 ft 376 kts 214°
2026-05-07 01:05 37.14139 -77.24452 21919 ft 373 kts 217°
2026-05-07 01:05 37.11199 -77.26666 21923 ft 372 kts 219°
2026-05-07 01:05 37.08964 -77.28321 21914 ft 377 kts 212°
2026-05-07 01:06 37.06460 -77.29435 21932 ft 380 kts 211°
2026-05-07 01:06 37.04401 -77.31234 21922 ft 346 kts 234°
2026-05-07 01:06 37.03300 -77.33734 21918 ft 318 kts 258°
2026-05-07 01:06 37.03296 -77.36389 21910 ft 302 kts 284°
2026-05-07 01:07 37.04310 -77.38672 21940 ft 306 kts 304°
2026-05-07 01:07 37.05777 -77.40647 21938 ft 312 kts 308°
2026-05-07 01:07 37.07286 -77.42595 21934 ft 311 kts 307°
2026-05-07 01:07 37.08751 -77.44583 21930 ft 310 kts 306°
2026-05-07 01:08 37.10190 -77.46598 21935 ft 309 kts 305°
2026-05-07 01:08 37.11601 -77.48622 21934 ft 308 kts 305°
2026-05-07 01:08 37.13004 -77.50644 21936 ft 307 kts 305°
2026-05-07 01:08 37.14406 -77.52666 21938 ft 306 kts 304°
2026-05-07 01:09 37.15802 -77.54678 21935 ft 306 kts 304°
2026-05-07 01:09 37.17198 -77.56686 21936 ft 305 kts 304°
2026-05-07 01:09 37.18576 -77.58665 21934 ft 305 kts 304°
2026-05-07 01:09 37.19963 -77.60669 21933 ft 303 kts 304°
2026-05-07 01:10 37.21396 -77.62622 21932 ft 306 kts 308°
2026-05-07 01:10 37.22892 -77.64512 21941 ft 304 kts 306°
2026-05-07 01:10 37.24357 -77.66425 21928 ft 308 kts 312°
2026-05-07 01:10 37.26219 -77.67851 21949 ft 322 kts 329°
2026-05-07 01:11 37.28452 -77.68517 21931 ft 340 kts 345°
2026-05-07 01:11 37.30871 -77.68319 21932 ft 358 kts
2026-05-07 01:11 37.33268 -77.67231 21935 ft 376 kts 19°
2026-05-07 01:11 37.35447 -77.65294 21929 ft 392 kts 36°
2026-05-07 01:12 37.37251 -77.62668 21943 ft 401 kts 47°
2026-05-07 01:12 37.38779 -77.59694 21926 ft 407 kts 56°
2026-05-07 01:12 37.40010 -77.56511 21923 ft 412 kts 63°
2026-05-07 01:12 37.40947 -77.53099 21927 ft 415 kts 71°
2026-05-07 01:13 37.41559 -77.49541 21925 ft 417 kts 79°
2026-05-07 01:13 37.41830 -77.45898 21926 ft 419 kts 88°
2026-05-07 01:13 37.41755 -77.42238 21924 ft 418 kts 96°
2026-05-07 01:13 37.41334 -77.38611 21907 ft 417 kts 104°
2026-05-07 01:14 37.40578 -77.35102 21909 ft 415 kts 112°
2026-05-07 01:14 37.39498 -77.31750 21901 ft 411 kts 120°
2026-05-07 01:14 37.38134 -77.28641 21815 ft 401 kts 128°
2026-05-07 01:14 37.36524 -77.25822 21501 ft 393 kts 136°
2026-05-07 01:15 37.34745 -77.23250 21043 ft 389 kts 139°
2026-05-07 01:15 37.32920 -77.20748 20568 ft 388 kts 139°
2026-05-07 01:15 37.31087 -77.18274 20156 ft 385 kts 139°
2026-05-07 01:15 37.29289 -77.15863 19931 ft 383 kts 139°
2026-05-07 01:16 37.27427 -77.13383 19921 ft 386 kts 139°
2026-05-07 01:16 37.25608 -77.10967 19913 ft 383 kts 139°
2026-05-07 01:16 37.23784 -77.08544 19911 ft 381 kts 139°
2026-05-07 01:16 37.21961 -77.06126 19913 ft 382 kts 139°
2026-05-07 01:17 37.20127 -77.03699 19921 ft 383 kts 139°
2026-05-07 01:17 37.18294 -77.01274 19927 ft 383 kts 139°
2026-05-07 01:17 37.16452 -76.98840 19928 ft 383 kts 139°
2026-05-07 01:17 37.14619 -76.96419 19923 ft 383 kts 139°
2026-05-07 01:18 37.12802 -76.94021 19924 ft 383 kts 139°
2026-05-07 01:18 37.10970 -76.91607 19930 ft 382 kts 139°
2026-05-07 01:18 37.09142 -76.89198 19921 ft 381 kts 139°
2026-05-07 01:18 37.07313 -76.86791 19929 ft 381 kts 139°
2026-05-07 01:19 37.05487 -76.84389 19924 ft 380 kts 139°
2026-05-07 01:19 37.03662 -76.81990 19922 ft 380 kts 139°
2026-05-07 01:19 37.01836 -76.79590 19930 ft 380 kts 139°
2026-05-07 01:19 37.00014 -76.77200 19926 ft 380 kts 139°
2026-05-07 01:20 36.97994 -76.75187 19901 ft 364 kts 162°
2026-05-07 01:20 36.95634 -76.74468 19921 ft 340 kts 189°
2026-05-07 01:20 36.93376 -76.74962 19937 ft 323 kts 207°
2026-05-07 01:20 36.91356 -76.76103 19936 ft 316 kts 217°
2026-05-07 01:21 36.89573 -76.77641 19926 ft 309 kts 228°
2026-05-07 01:21 36.88187 -76.79643 19935 ft 301 kts 239°
2026-05-07 01:21 36.87017 -76.81813 19941 ft 301 kts 242°
2026-05-07 01:21 36.85897 -76.84023 19942 ft 301 kts 243°
2026-05-07 01:22 36.84799 -76.86220 19941 ft 302 kts 243°
2026-05-07 01:22 36.83685 -76.88442 19946 ft 302 kts 243°
2026-05-07 01:22 36.82567 -76.90660 19949 ft 302 kts 243°
2026-05-07 01:22 36.81444 -76.92876 19949 ft 302 kts 242°
2026-05-07 01:23 36.80320 -76.95084 19949 ft 301 kts 242°
2026-05-07 01:23 36.79194 -76.97289 19947 ft 301 kts 242°
2026-05-07 01:23 36.78066 -76.99493 19949 ft 301 kts 242°
2026-05-07 01:23 36.76938 -77.01692 19950 ft 301 kts 242°
2026-05-07 01:24 36.75809 -77.03891 19945 ft 301 kts 242°
2026-05-07 01:24 36.74678 -77.06091 19947 ft 301 kts 242°
2026-05-07 01:24 36.73565 -77.08253 19944 ft 301 kts 242°
2026-05-07 01:24 36.72436 -77.10447 19944 ft 300 kts 242°
2026-05-07 01:25 36.71304 -77.12642 19940 ft 300 kts 242°
2026-05-07 01:25 36.70174 -77.14833 19944 ft 300 kts 242°
2026-05-07 01:25 36.69043 -77.17023 19940 ft 301 kts 242°
2026-05-07 01:25 36.67911 -77.19215 19936 ft 301 kts 242°
2026-05-07 01:26 36.66779 -77.21405 19943 ft 301 kts 242°
2026-05-07 01:26 36.65647 -77.23594 19944 ft 301 kts 242°
2026-05-07 01:26 36.64512 -77.25787 19954 ft 301 kts 242°
2026-05-07 01:26 36.63379 -77.27975 19949 ft 301 kts 242°
2026-05-07 01:27 36.62245 -77.30163 19951 ft 301 kts 242°
2026-05-07 01:27 36.61111 -77.32348 19954 ft 300 kts 242°
2026-05-07 01:27 36.59972 -77.34546 19868 ft 311 kts 242°
2026-05-07 01:27 36.58770 -77.36872 19626 ft 321 kts 242°
2026-05-07 01:28 36.57577 -77.39164 19374 ft 309 kts 242°
2026-05-07 01:28 36.56429 -77.41359 19131 ft 298 kts 242°
2026-05-07 01:28 36.55312 -77.43500 18899 ft 293 kts 242°
2026-05-07 01:28 36.54209 -77.45617 18666 ft 290 kts 242°
2026-05-07 01:29 36.53116 -77.47715 18436 ft 289 kts 242°
2026-05-07 01:29 36.52027 -77.49806 18200 ft 287 kts 242°
2026-05-07 01:29 36.51310 -77.51182 18032 ft 286 kts 242°
2026-05-07 01:29 36.50225 -77.53263 17768 ft 287 kts 242°
2026-05-07 01:30 36.49138 -77.55348 17512 ft 289 kts 242°
2026-05-07 01:30 36.48038 -77.57459 17253 ft 292 kts 242°
2026-05-07 01:30 36.46934 -77.59570 17006 ft 291 kts 242°
2026-05-07 01:30 36.45834 -77.61673 16751 ft 290 kts 242°
2026-05-07 01:31 36.44736 -77.63770 16502 ft 289 kts 241°
2026-05-07 01:31 36.43637 -77.65867 16253 ft 289 kts 241°
2026-05-07 01:31 36.42557 -77.67929 16011 ft 288 kts 241°
2026-05-07 01:31 36.41464 -77.70013 15765 ft 288 kts 241°
2026-05-07 01:32 36.40372 -77.72094 15524 ft 287 kts 241°
2026-05-07 01:32 36.39283 -77.74167 15292 ft 285 kts 241°
2026-05-07 01:32 36.38207 -77.76216 15056 ft 283 kts 241°
2026-05-07 01:32 36.37136 -77.78252 14814 ft 280 kts 240°
2026-05-07 01:33 36.36073 -77.80273 14581 ft 280 kts 240°
2026-05-07 01:33 36.35010 -77.82293 14349 ft 279 kts 240°
2026-05-07 01:33 36.33947 -77.84313 14115 ft 279 kts 240°
2026-05-07 01:33 36.32886 -77.86328 13885 ft 279 kts 240°
2026-05-07 01:34 36.31825 -77.88340 13646 ft 279 kts 240°
2026-05-07 01:34 36.30764 -77.90352 13388 ft 279 kts 240°
2026-05-07 01:34 36.29704 -77.92362 13129 ft 278 kts 240°
2026-05-07 01:34 36.28645 -77.94366 12871 ft 278 kts 240°
2026-05-07 01:35 36.27587 -77.96369 12622 ft 277 kts 240°
2026-05-07 01:35 36.26535 -77.98360 12367 ft 276 kts 240°
2026-05-07 01:35 36.25486 -78.00343 12028 ft 274 kts 240°
2026-05-07 01:35 36.24451 -78.02296 11783 ft 267 kts 239°
2026-05-07 01:36 36.23442 -78.04198 11513 ft 262 kts 240°
2026-05-07 01:36 36.22550 -78.06146 11112 ft 260 kts 246°
2026-05-07 01:36 36.21809 -78.08176 10739 ft 258 kts 248°
2026-05-07 01:36 36.21083 -78.10211 10370 ft 258 kts 248°
2026-05-07 01:37 36.20388 -78.12239 10129 ft 252 kts 249°
2026-05-07 01:37 36.19740 -78.14204 9984 ft 242 kts 249°
2026-05-07 01:37 36.19103 -78.16137 9644 ft 242 kts 249°
2026-05-07 01:37 36.18470 -78.18051 9314 ft 240 kts 249°
2026-05-07 01:38 36.17834 -78.19962 9052 ft 239 kts 249°
2026-05-07 01:38 36.17209 -78.21830 9025 ft 238 kts 249°
2026-05-07 01:38 36.16581 -78.23703 8997 ft 230 kts 249°
2026-05-07 01:38 36.15985 -78.25475 8990 ft 216 kts 249°
2026-05-07 01:39 36.15422 -78.27145 8985 ft 204 kts 249°
2026-05-07 01:39 36.14933 -78.28731 8989 ft 191 kts 255°
2026-05-07 01:39 36.14640 -78.30283 8989 ft 180 kts 258°
2026-05-07 01:39 36.14385 -78.31788 8992 ft 178 kts 258°
2026-05-07 01:40 36.14119 -78.33345 9034 ft 198 kts 258°
2026-05-07 01:40 36.13818 -78.35076 9016 ft 209 kts 258°
2026-05-07 01:40 36.13505 -78.36851 9013 ft 212 kts 258°
2026-05-07 01:40 36.13189 -78.38626 8946 ft 210 kts 258°
2026-05-07 01:41 36.12876 -78.40375 8693 ft 209 kts 257°
2026-05-07 01:41 36.12560 -78.42139 8398 ft 210 kts 258°
2026-05-07 01:41 36.12250 -78.43874 8141 ft 209 kts 258°
2026-05-07 01:41 36.11909 -78.45621 7881 ft 209 kts 253°
2026-05-07 01:42 36.11299 -78.47248 7625 ft 210 kts 241°
2026-05-07 01:42 36.10397 -78.48681 7347 ft 212 kts 232°
2026-05-07 01:42 36.09391 -78.50015 7109 ft 212 kts 231°
2026-05-07 01:42 36.08379 -78.51332 6907 ft 214 kts 231°
2026-05-07 01:43 36.07324 -78.52705 6676 ft 225 kts 230°
2026-05-07 01:43 36.06260 -78.54092 6439 ft 219 kts 230°
2026-05-07 01:43 36.05225 -78.55435 6189 ft 212 kts 230°
2026-05-07 01:43 36.04216 -78.56742 6033 ft 207 kts 230°
2026-05-07 01:44 36.03228 -78.58019 5849 ft 204 kts 231°
2026-05-07 01:44 36.02247 -78.59282 5595 ft 203 kts 230°
2026-05-07 01:44 36.01277 -78.60530 5291 ft 200 kts 230°
2026-05-07 01:44 36.00326 -78.61759 5028 ft 196 kts 231°
2026-05-07 01:45 35.99404 -78.62946 4811 ft 185 kts 230°
2026-05-07 01:45 35.98552 -78.64036 4597 ft 168 kts 230°
2026-05-07 01:45 35.97787 -78.65006 4375 ft 151 kts 231°
2026-05-07 01:45 35.97084 -78.65891 4118 ft 137 kts 230°
2026-05-07 01:46 35.96451 -78.66704 3864 ft 126 kts 230°
2026-05-07 01:46 35.95866 -78.67473 3583 ft 130 kts 231°
2026-05-07 01:46 35.95196 -78.68357 3613 ft 142 kts 231°
2026-05-07 01:46 35.94542 -78.69214 3375 ft 134 kts 230°
2026-05-07 01:47 35.93940 -78.70022 3109 ft 122 kts 230°
2026-05-07 01:47 35.93437 -78.70770 3014 ft 110 kts 232°
2026-05-07 01:47 35.92876 -78.71648 2983 ft 141 kts 233°
2026-05-07 01:47 35.92264 -78.72543 2797 ft 129 kts 227°
2026-05-07 01:48 35.91632 -78.73300 2383 ft 126 kts 226°
2026-05-07 01:48 35.91004 -78.74089 1931 ft 129 kts 227°
2026-05-07 01:48 35.90402 -78.74880 1580 ft 125 kts 226°
2026-05-07 01:48 35.89806 -78.75656 1214 ft 124 kts 228°
2026-05-07 01:49 35.89176 -78.76449 833 ft 136 kts 221°
2026-05-07 01:49 35.88479 -78.77257 643 ft 137 kts 222°
2026-05-07 01:49 35.87837 -78.78054 429 ft 125 kts 220°
2026-05-07 01:49 35.87318 -78.78681 428 ft 69 kts 224°
2026-05-07 01:50 35.87157 -78.78884 421 ft 7 kts 245°
2026-05-07 01:50 35.87174 -78.78938 418 ft 7 kts 313°
2026-05-07 01:50 35.87207 -78.78976 424 ft 6 kts 334°
2026-05-07 01:50 35.87239 -78.78977 418 ft 4 kts 20°
2026-05-07 01:51 35.87271 -78.78933 420 ft 15 kts 50°
2026-05-07 01:51 35.87329 -78.78939 426 ft 9 kts 315°
2026-05-07 01:51 35.87367 -78.78978 423 ft 4 kts 322°
2026-05-07 01:51 35.87372 -78.78983 427 ft 0 kts 322°